Regional Weather Roundup
Issued by NWS

Home | Current Version | Previous Version | Text Only | Print | Product List | Glossary Off
Versions: 1 2 3 4 5 6 7 8 9 10 11 12 13 14 15 16 17 18 19 20 21 22 23 24 25 26 27 28 29 30 31 32 33 34 35 36 37 38 39 40 41 42 43 44 45 46 47 48 49 50

000
ASUS43 KDMX 290603
RWRIA

WEATHER ROUNDUP FOR IOWA
NATIONAL WEATHER SERVICE DES MOINES IA
100 AM CDT FRI JUL 29 2016

NOTE: "FAIR" INDICATES FEW OR NO CLOUDS BELOW 12,000 FEET WITH NO
SIGNIFICANT WEATHER AND/OR OBSTRUCTIONS TO VISIBILITY.

* - THESE STATIONS ARE NOT NWS STATIONS...THUS NOT UNDER NWS
QUALITY CONTROL.  THEY ALSO DO NOT REPORT WEATHER SUCH
AS PRECIPITATION OR FOG.

IAZ001>003-012>014-020>022-031>034-043>046-290700-
   NORTHWEST IOWA

CITY           SKY/WX    TMP DP  RH WIND       PRES   REMARKS
CARROLL *      PTCLDY    64  63  94 N3        30.04S
CHEROKEE *     MOCLDY    64  64  97 NE3       30.06S
DENISON *      MOCLDY    63  63 100 CALM      30.03S
LE MARS *      PTCLDY    64  63  94 CALM      30.07S
SHELDON *      MOCLDY    59  59 100 N6        30.06F
SIOUX CITY     CLEAR     69  62  78 N6        30.05F
6HR MIN TEMP:  69; 6HR MAX TEMP:  80;

SPENCER        PTCLDY    61  60  97 NW5       30.07S
6HR MIN TEMP:  61; 6HR MAX TEMP:  74;

STORM LAKE *   CLOUDY    64  63  94 NE6       30.06F
$$

IAZ055>058-069>071-079>083-090>094-290700-
   SOUTHWEST IOWA

CITY           SKY/WX    TMP DP  RH WIND       PRES   REMARKS
ATLANTIC *     CLOUDY    68  66  94 CALM      30.02F
CLARINDA *       N/A     70  68  94 MISG      30.02F
COUNCIL BLFS *   N/A     68  64  88 N5        30.03F
CRESTON *      CLOUDY    66  64  94 NW6       30.03F
HARLAN  *      CLOUDY    66  64  94 CALM      30.06F
LAMONI         CLOUDY    67  64  90 N6        30.00S
6HR MIN TEMP:  65; 6HR MAX TEMP:  78;

RED OAK *      CLOUDY    68  66  94 N5        30.02F
SHENANDOAH *   CLOUDY    70  68  94 NE5       30.01F
$$

IAZ047>049-059>061-072>074-084-290700-
   CENTRAL IOWA

CITY           SKY/WX    TMP DP  RH WIND       PRES   REMARKS
AMES           MOCLDY    66  65  96 N7        30.00F
6HR MIN TEMP:  66; 6HR MAX TEMP:  73;

ANKENY *         N/A    N/A N/A N/A MISG        N/A
BOONE *          N/A     64  63  94 N5        30.01S
CHARITON *       N/A    N/A N/A N/A MISG        N/A
DES MOINES     CLOUDY    70  65  84 N8        29.99S
6HR MIN TEMP:  70; 6HR MAX TEMP:  79;

GRINNELL*      PTCLDY    63  61  94 NW5       30.00R
KNOXVILLE *    CLOUDY    64  63  94 NW6       29.98R
MARSHALLTOWN   CLOUDY    64  64 100 NW6       29.99S
6HR MIN TEMP:  62; 6HR MAX TEMP:  76;

NEWTON *       CLOUDY    64  64 100 N7        29.98F
PELLA *        MOCLDY    65  64  94 N5        29.99S
PERRY *          N/A     65  64  97 N5        30.02S
$$

IAZ004>006-015-016-023>025-035-036-290700-
   NORTH CENTRAL IOWA

CITY           SKY/WX    TMP DP  RH WIND       PRES   REMARKS
ALGONA *       CLOUDY    64  63  94 N3        30.04F
ESTHERVILLE    CLOUDY    64  63  96 N6        30.05F
6HR MIN TEMP:  64; 6HR MAX TEMP:  72;

FORT DODGE *   PTCLDY    64  61  88 NW3       30.05S
MASON CITY     CLOUDY    64  62  93 N6        30.03F
6HR MIN TEMP:  62; 6HR MAX TEMP:  71;

FOREST CITY *  MOCLDY    63  61  94 N7        30.03F
IOWA FALLS *   CLOUDY    65  63  92 NW3       30.02F
$$

IAZ007>011-017>019-026>030-037>042-050>054-066-290700-
   NORTHEAST IOWA

CITY           SKY/WX    TMP DP  RH WIND       PRES   REMARKS
CEDAR RAPIDS   CLOUDY    68  67  96 NW6       29.96R
6HR MIN TEMP:  68; 6HR MAX TEMP:  76;

CHARLES CITY * CLOUDY    64  64 100 VRB6      30.01S
CLINTON *      MOCLDY    70  69  97 E5        29.93S
DECORAH *      CLOUDY    64  64 100 VRB5      29.99R FOG
DUBUQUE        CLOUDY    70  66  87 E8        29.96S
6HR MIN TEMP:  68; 6HR MAX TEMP:  76;

MONTICELLO *   CLOUDY    68  66  94 CALM      29.95R
OELWEIN *      CLOUDY    66  64  94 N8        29.98F
WATERLOO       CLOUDY    67  62  84 N7        29.97S
6HR MIN TEMP:  66; 6HR MAX TEMP:  74;

$$

IAZ064-065-067-068-078-290700-
   EAST CENTRAL IOWA

CITY           SKY/WX    TMP DP  RH WIND       PRES   REMARKS
DAVENPORT      MOCLDY    68  66  93 NW5       29.93S
6HR MIN TEMP:  67; 6HR MAX TEMP:  79;

IOWA CITY      CLOUDY    70  66  87 N7        29.96R
6HR MIN TEMP:  69; 6HR MAX TEMP:  79;

MT. PLEASANT * CLEAR     69  69  99 W3        29.95F
MUSCATINE *    MOCLDY    68  66  94 N5        29.94S
QUAD CITIES    CLEAR     72  67  84 W6        29.91F
6HR MIN TEMP:  71; 6HR MAX TEMP:  83;

$$

IAZ062-063-075>077-085>089-095>099-290700-
   SOUTHEAST IOWA

CITY           SKY/WX    TMP DP  RH WIND       PRES   REMARKS
BURLINGTON     CLEAR     67  66  97 NW6       29.94S
6HR MIN TEMP:  67; 6HR MAX TEMP:  78;

FAIRFIELD *    CLEAR     66  63  88 NW7       29.96S
KEOKUK *       CLEAR     70  66  88 W5        29.94F
CENTERVILLE *    N/A     64  63  94 CALM      30.00
OTTUMWA        CLOUDY    64  62  93 NW7       29.97S
6HR MIN TEMP:  64; 6HR MAX TEMP:  77;

WASHINGTON *   CLEAR     68  66  94 NW9       29.96F
$$

ABBREVIATIONS USED IN REMARKS
   TC - TEMPERATURES IN CELSIUS
  WCI - WIND CHILL INDEX
   HX - HEAT INDEX
  VSB - VISIBILITY
$$




USA.gov is the U.S. government's official web portal to all federal, state and local government web resources and services.